Regional Weather Roundup
Issued by NWS

Home | Current Version | Previous Version | Graphics & Text | Print | Product List | Glossary On
Versions: 1 2 3 4 5 6 7 8 9 10 11 12 13 14 15 16 17 18 19 20 21 22 23 24 25 26 27 28
000
ASUS45 KCYS 220310
RWRWY

WYOMING REGIONAL WEATHER ROUNDUP
NATIONAL WEATHER SERVICE CHEYENNE WY
900 PM MDT WED JUN 21 2017

NOTE:  "FAIR" INDICATES FEW OR NO CLOUDS BELOW 12,000 FEET
WITH NO SIGNIFICANT WEATHER AND/OR OBSTRUCTIONS TO VISIBILITY.

WYZ001-220400-
YELLOWSTONE NATIONAL PARK

CITY           SKY/WX    TMP DP  RH WIND       PRES   REMARKS
LK YELLOWSTONE   N/A     65  41  41 VRB6      30.13S
W YELLOWSTONE  NOT AVBL

$$
WYZ002>013-054>058-071-098>099-220400-
NORTHERN WYOMING

CITY           SKY/WX    TMP DP  RH WIND       PRES   REMARKS
JACKSON        FAIR      66  41  39 SW9       30.04S
CODY           FAIR      73  48  41 NW6       29.91R
GREYBULL       FAIR      83  47  28 NW15      29.76R
WORLAND        FAIR      79  51  37 NE9       29.77R
SHERIDAN       FAIR      71  56  58 NW10      29.83R
BUFFALO        FAIR      71  53  52 NW8       29.89R
GILLETTE       FAIR      73  47  39 N10       29.83R
NEWCASTLE      FAIR      77  46  33 NE5       29.78S

$$
WYZ014>020-022>026-101>103-220400-
CENTRAL WYOMING

CITY           SKY/WX    TMP DP  RH WIND       PRES   REMARKS
BIG PINEY      FAIR      67  39  35 NW12      30.10F
PINEDALE       FAIR      64  43  45 W8        30.11F
DUBOIS         FAIR      68  34  28 NW13G18   30.05R
LANDER         FAIR      81  31  16 NW14G22   29.92F
RIVERTON       FAIR      78  36  21 W9        29.90R
CASPER         FAIR      73  37  27 SW9       29.87R
DOUGLAS        FAIR      75  53  46 SE7       29.85S

$$
WYZ021-027>030-104>119-220400-
SOUTHERN WYOMING

CITY           SKY/WX    TMP DP  RH WIND       PRES   REMARKS
EVANSTON       FAIR      71  50  47 NW6       30.14R
KEMMERER         N/A     68  43  40 W10       30.14S
FORT BRIDGER   FAIR      73  44  35 NW5       30.16R
ROCK SPRINGS   FAIR      75  40  28 W16       30.07R
DIXON          FAIR      74  37  26 CALM      30.09S
RAWLINS        FAIR      78  33  19 W17G24    30.06R
SARATOGA       FAIR      75  34  22 SW15      30.09S
LARAMIE        FAIR      69  36  29 SW17      30.08F
CHEYENNE       FAIR      74  38  27 W10       29.98F
TORRINGTON     FAIR      82  44  26 E5        29.80R
PINE BLUFFS    FAIR      73  41  31 NW9       29.91S

$$




USA.gov is the U.S. government's official web portal to all federal, state and local government web resources and services.